Regional Weather Roundup
Issued by NWS

Home | Current Version | Previous Version | Graphics & Text | Print | Product List | Glossary On
Versions: 1 2 3 4 5 6 7 8 9 10 11 12 13 14 15 16 17 18 19 20 21 22 23 24 25 26 27 28 29 30 31 32 33 34 35 36 37 38 39 40 41 42 43 44 45 46 47 48 49 50
000
ASUS43 KTOP 171308
RWRKS

WEATHER ROUNDUP FOR KANSAS
NATIONAL WEATHER SERVICE GOODLAND KS
800 AM CDT THU AUG 17 2017

NOTE:  "FAIR" INDICATES FEW OR NO CLOUDS BELOW 12,000 FEET WITH NO
SIGNIFICANT WEATHER AND/OR OBSTRUCTIONS TO VISIBILITY.

KSZ001>006-013>018-027>032-041>047-171400-
NORTHWEST KANSAS

CITY           SKY/WX    TMP DP  RH WIND       PRES   REMARKS
GOODLAND       SUNNY     61  57  87 CALM      30.13S
HAYS           SUNNY     61  59  93 NW6       30.07R
HILL CITY      SUNNY     60  58  92 W7        30.08R
RUSSELL        SUNNY     61  59  93 W6        30.05R
$$

KSZ061>065-074>080-084>089-171400-
SOUTHWEST KANSAS

CITY           SKY/WX    TMP DP  RH WIND       PRES   REMARKS
DODGE CITY     MOSUNNY   64  59  83 N5        30.10R
ELKHART          N/A     62  60  93 NW1         N/A
GARDEN CITY    CLOUDY    61  58  90 NW6       30.13R
GREAT BEND     SUNNY     62  59  90 W8        30.07R
LIBERAL        MOSUNNY   61  59  93 W5        30.12S
PRATT          SUNNY     62  58  87 NW10      30.05S
$$

KSZ066>073-081>083-090>101-171400-
SOUTHEAST KANSAS

CITY           SKY/WX    TMP DP  RH WIND       PRES   REMARKS
CHANUTE        CLOUDY    69  67  93 N6        29.97R
COFFEYVILLE    CLOUDY    69  69 100 NW3       29.98R FOG
HUTCHINSON     SUNNY     64  62  93 W5        30.02R
MEDICINE LODGE   N/A     65  61  87 CALM      30.04R
NEWTON         SUNNY     65  62  90 NW7       30.02R
PARSONS        CLOUDY    69  68  96 NW5       29.99R
WICHITA INTL   MOSUNNY   67  64  90 NW8       30.00R
WICHITA JABRA  SUNNY     66  64  93 NW9       30.00R
WICHITA MCCONL SUNNY     66  62  86 N8        30.00R
WINFIELD       CLOUDY    66  64  93 N3        30.02R
$$

KSZ007>012-019>026-033>040-048>060-102>105-171400-
NORTHEAST KANSAS

CITY           SKY/WX    TMP DP  RH WIND       PRES   REMARKS
CONCORDIA      SUNNY     61  60  97 W8        30.01R
EMPORIA        SUNNY     66  63  90 W7        29.98R
LAWRENCE       SUNNY     68  66  93 W3        29.94R
MANHATTAN      SUNNY     65  63  93 W5        29.98R
MARYSVILLE     SUNNY     63  61  94 W6        29.98R
OLATHE IND     CLOUDY    67  65  93 W6        29.95R
OLATHE EXE     CLOUDY    66  66 100 W7        29.94R
SALINA         SUNNY     67  62  84 NW7       30.01R
TOPEKA BILLARD SUNNY     67  66  97 W7        29.94R
TOPEKA FORBES  SUNNY     69  65  86 NW13      29.95R
$$



USA.gov is the U.S. government's official web portal to all federal, state and local government web resources and services.